Location: Brantley
(31.5822°N, 86.2569°W)
Time: 01:40:25
(UTC+00:00)

Vanguard 2 - Pass Details

Date: 17 February 2026
Orbit: 553 x 2896 km, 32.9° (Epoch: 13 March)

Event Time Altitude Azimuth Distance (km) Brightness Sun altitude
Rises 14:30:28 0° 278° (W) 2,859 10.0 23.8°
Reaches altitude 10° 14:32:49 10° 280° (W) 1,862 9.1 24.3°
Maximum altitude 14:36:49 81° 6° (N) 563 7.2 25.0°
Drops below altitude 10° 14:41:03 10° 95° (E) 1,960 10.8 25.7°
Sets 14:43:35 0° 97° (E) 3,028 11.6 26.2°
